TimeHST,TemperatureF,Dew PointF,Humidity,Sea Level PressureIn,VisibilityMPH,Wind Direction,Wind SpeedMPH,Gust SpeedMPH,PrecipitationIn,Events,Conditions,WindDirDegrees,DateUTC
12:53 AM,63.0,57.9,84,30.00,10.0,WNW,6.9,-,N/A,,Scattered Clouds,290,2014-02-03 10:53:00
1:53 AM,63.0,57.9,84,29.99,10.0,West,9.2,-,N/A,,Partly Cloudy,280,2014-02-03 11:53:00
2:53 AM,63.0,57.9,84,29.99,10.0,WNW,6.9,-,N/A,,Mostly Cloudy,290,2014-02-03 12:53:00
3:53 AM,64.0,57.9,80,29.99,10.0,West,6.9,-,N/A,,Overcast,270,2014-02-03 13:53:00
4:53 AM,64.9,59.0,81,29.98,10.0,WNW,4.6,-,N/A,,Mostly Cloudy,300,2014-02-03 14:53:00
5:53 AM,64.9,59.0,81,29.99,10.0,West,4.6,-,N/A,,Mostly Cloudy,280,2014-02-03 15:53:00
6:53 AM,64.9,59.0,81,30.00,10.0,West,6.9,-,N/A,,Mostly Cloudy,280,2014-02-03 16:53:00
7:53 AM,66.0,60.1,81,30.00,10.0,WNW,3.5,-,N/A,,Overcast,300,2014-02-03 17:53:00
8:53 AM,68.0,60.1,76,30.02,10.0,WNW,3.5,-,N/A,,Overcast,290,2014-02-03 18:53:00
9:53 AM,70.0,61.0,73,30.04,10.0,NNW,5.8,-,0.00,Rain,Light Rain,330,2014-02-03 19:53:00
10:53 AM,72.0,61.0,68,30.04,10.0,ENE,8.1,-,0.00,,Mostly Cloudy,60,2014-02-03 20:53:00
11:12 AM,71.6,62.6,73,30.05,10.0,NE,6.9,-,N/A,,Overcast,50,2014-02-03 21:12:00
11:44 AM,71.6,60.8,69,30.03,10.0,ENE,8.1,-,N/A,,Overcast,60,2014-02-03 21:44:00
11:53 AM,72.0,61.0,68,30.02,10.0,NE,8.1,-,N/A,,Overcast,50,2014-02-03 21:53:00
12:53 PM,69.1,63.0,81,30.00,10.0,ENE,8.1,-,0.00,Rain,Light Rain,70,2014-02-03 22:53:00
1:53 PM,69.1,63.0,81,29.97,10.0,ENE,4.6,-,0.02,Rain,Light Rain,60,2014-02-03 23:53:00
2:07 PM,69.8,62.6,78,29.97,10.0,Variable,4.6,-,0.00,Rain,Light Rain,0,2014-02-04 00:07:00
2:53 PM,69.1,64.0,84,29.96,10.0,North,3.5,-,0.02,Rain,Light Rain,360,2014-02-04 00:53:00
3:07 PM,69.8,64.4,83,29.96,10.0,NNE,4.6,-,0.01,Rain,Light Rain,20,2014-02-04 01:07:00
3:32 PM,69.8,64.4,83,29.96,10.0,North,5.8,-,0.01,,Overcast,350,2014-02-04 01:32:00
3:41 PM,69.8,64.4,83,29.96,10.0,NNW,4.6,-,0.01,,Overcast,340,2014-02-04 01:41:00
3:53 PM,69.1,64.0,84,29.95,10.0,North,3.5,-,0.01,,Overcast,350,2014-02-04 01:53:00
4:53 PM,69.1,64.0,84,29.98,10.0,NNW,3.5,-,N/A,,Overcast,340,2014-02-04 02:53:00
5:53 PM,68.0,64.0,87,29.99,10.0,West,5.8,-,N/A,,Mostly Cloudy,280,2014-02-04 03:53:00
6:53 PM,66.9,64.0,90,29.99,10.0,WNW,4.6,-,N/A,,Clear,290,2014-02-04 04:53:00
7:53 PM,66.9,64.0,90,30.00,10.0,WNW,4.6,-,0.00,,Partly Cloudy,300,2014-02-04 05:53:00
8:53 PM,66.0,64.0,93,30.01,10.0,WNW,6.9,-,N/A,,Clear,290,2014-02-04 06:53:00
9:53 PM,64.9,63.0,93,30.03,10.0,WNW,6.9,-,N/A,,Partly Cloudy,290,2014-02-04 07:53:00
10:53 PM,64.9,62.1,90,30.02,10.0,West,6.9,-,N/A,,Partly Cloudy,280,2014-02-04 08:53:00
11:53 PM,64.0,62.1,93,30.00,10.0,West,5.8,-,N/A,,Clear,280,2014-02-04 09:53:00